GW0274 Weather Reports


time (UTC)temp
F
wind
direction
speed
knots
gust
knots
rain 1hr
in
rain 24hr
in
rain mn
in
humidity
%
barometer
mb
20260508183048 42 0 0.0 0.0 0.00 0.00 0.00 91 1001.8
20260508181549 42 0 0.0 0.0 0.00 0.00 0.00 92 1001.9
20260508180058 41 0 0.0 0.0 0.00 0.00 0.00 92 1001.9
20260508174609 42 0 0.0 0.0 0.00 0.00 0.00 91 1002.0
20260508173104 41 0 0.0 0.0 0.00 0.00 0.00 91 1002.2
20260508171610 42 0 0.0 0.0 0.00 0.00 0.00 91 1002.3
20260508170050 42 0 0.0 0.0 0.00 0.00 0.00 91 1002.3
20260508164558 43 0 0.0 0.0 0.00 0.00 0.00 90 1002.2
20260508163055 45 0 0.0 0.0 0.00 0.00 0.00 90 1001.8
20260508161556 45 0 0.0 0.0 0.00 0.00 0.00 91 1001.7
20260508160049 44 0 0.0 0.0 0.00 0.00 0.00 91 1001.6
20260508154549 43 0 0.0 0.0 0.00 0.00 0.00 92 1001.7
20260508153047 43 0 0.0 0.0 0.00 0.00 0.00 92 1001.8
20260508151556 43 0 0.0 0.0 0.00 0.00 0.00 91 1001.9
20260508150048 43 0 0.0 0.0 0.00 0.00 0.00 91 1002.0
20260508144551 45 0 0.0 0.0 0.00 0.00 0.00 89 1001.9
20260508143053 47 0 0.0 0.0 0.00 0.00 0.00 89 1001.9
20260508141552 48 0 0.0 0.0 0.00 0.00 0.00 91 1001.8
20260508140056 46 0 0.0 0.0 0.00 0.00 0.00 92 1002.1
20260508134605 46 0 0.0 0.0 0.00 0.00 0.00 93 1002.3
20260508133104 47 0 0.0 0.0 0.00 0.00 0.00 93 1002.2
20260508131552 47 0 0.0 0.0 0.00 0.00 0.00 94 1001.8
20260508130049 47 0 0.0 0.0 0.00 0.00 0.00 94 1001.5
20260508124550 46 0 0.0 0.0 0.00 0.00 0.00 95 1001.5
20260508123104 46 0 0.0 0.0 0.00 0.00 0.00 95 1001.8
20260508121558 45 0 0.0 0.0 0.00 0.00 0.00 96 1002.2
20260508120054 44 0 0.0 0.0 0.00 0.00 0.00 96 1001.8
20260508114549 44 0 0.0 0.0 0.00 0.00 0.00 96 1001.9
20260508113106 45 0 0.0 0.0 0.00 0.00 0.00 97 1002.1
20260508111600 44 0 0.0 0.0 0.00 0.00 0.00 97 1001.9
20260508110048 43 0 0.0 0.0 0.00 0.00 0.00 97 1002.4
20260508104558 42 0 0.0 0.0 0.00 0.00 0.00 97 1002.4
20260508103052 41 0 0.0 0.0 0.00 0.00 0.00 97 1002.4
20260508101553 41 0 0.0 0.0 0.00 0.00 0.00 97 1002.4
20260508100051 40 0 0.0 0.0 0.00 0.00 0.00 97 1002.0
20260508094555 40 0 0.0 0.0 0.00 0.00 0.00 97 1001.9
20260508093049 40 0 0.0 0.0 0.00 0.00 0.00 97 1002.0
20260508091612 40 0 0.0 0.0 0.00 0.00 0.00 97 1002.1
20260508090058 40 0 0.0 0.0 0.00 0.00 0.00 97 1001.8
20260508084547 40 0 0.0 0.0 0.00 0.00 0.00 97 1001.4
20260508083052 41 0 0.0 0.0 0.00 0.00 0.00 96 1001.2
20260508081552 42 0 0.0 0.0 0.00 0.00 0.00 97 1000.8
20260508080048 42 0 0.0 0.0 0.00 0.00 0.00 97 1000.9
20260508074548 41 0 0.0 0.0 0.00 0.00 0.00 96 1001.1
20260508073052 42 0 0.0 0.0 0.00 0.00 0.00 97 1001.4
20260508071553 42 0 0.0 0.0 0.00 0.00 0.00 96 1001.2
20260508070100 42 0 0.0 0.0 0.00 0.00 0.00 96 1001.4
20260508064551 43 0 0.0 0.0 0.00 0.00 0.00 97 1001.3
20260508063133 43 0 0.0 0.0 0.00 0.00 0.00 96 1001.4
20260508061556 42 0 0.0 0.0 0.00 0.00 0.00 96 1001.5
20260508060056 42 0 0.0 0.0 0.00 0.00 0.00 96 1001.4
20260508054555 42 0 0.0 0.0 0.00 0.00 0.00 96 1001.8
20260508053100 42 0 0.0 0.0 0.00 0.00 0.00 96 1002.1
20260508051612 43 0 0.0 0.0 0.00 0.00 0.00 96 1001.8
20260508050053 44 0 0.0 0.0 0.00 0.00 0.00 96 1001.9
20260508044552 43 0 0.0 0.0 0.00 0.00 0.00 96 1001.7
20260508043052 43 0 0.0 0.0 0.00 0.00 0.00 96 1001.7
20260508041548 43 0 0.0 0.0 0.00 0.00 0.00 96 1002.3
20260508040052 43 0 0.0 0.0 0.00 0.00 0.00 95 1002.2
20260508034553 47 0 0.0 0.0 0.00 0.00 0.00 96 1002.2
20260508033053 47 0 0.0 0.0 0.00 0.00 0.00 96 1002.1
20260508031549 48 0 0.0 0.0 0.00 0.00 0.00 96 1002.0
20260508030049 48 0 0.0 0.0 0.00 0.00 0.00 96 1001.8
20260508024552 47 0 0.0 0.0 0.00 0.00 0.00 96 1001.9
20260508023048 47 0 0.0 0.0 0.00 0.00 0.00 95 1001.9
20260508021554 46 0 0.0 0.0 0.00 0.00 0.00 96 1002.3
20260508020105 47 0 0.0 0.0 0.00 0.00 0.00 96 1002.3
20260508014550 46 0 0.0 0.0 0.00 0.00 0.00 95 1002.5
20260508013046 46 0 0.0 0.0 0.00 0.00 0.00 95 1002.6
20260508011553 46 0 0.0 0.0 0.00 0.00 0.00 94 1002.2
20260508010116 46 0 0.0 0.0 0.00 0.00 0.00 95 1002.2
20260508004556 46 0 0.0 0.0 0.00 0.00 0.00 94 1002.2
20260508003101 47 0 0.0 0.0 0.00 0.00 0.00 94 1002.3
20260508001553 47 0 0.0 0.0 0.00 0.00 0.00 94 1002.4
20260508000054 47 0 0.0 0.0 0.00 0.00 0.00 93 1002.5
20260507234555 46 0 0.0 0.0 0.00 0.00 0.00 92 1002.3
20260507233050 47 0 0.0 0.0 0.00 0.00 0.00 91 1002.1
20260507231556 50 0 0.0 1.7 0.00 0.00 0.00 88 1001.9
20260507230109 55 0 0.0 0.0 0.00 0.00 0.00 87 1000.9
20260507224553 55 0 0.0 0.9 0.00 0.00 0.00 86 1000.8
20260507223157 55 0 0.0 2.6 0.00 0.00 0.00 86 1000.8
20260507221552 55 0 0.0 7.0 0.00 0.00 0.00 86 1001.0
20260507220053 55 0 0.0 7.8 0.00 0.00 0.00 87 1000.8
20260507214559 55 0 0.0 4.3 0.00 0.00 0.00 88 1000.8
20260507213107 55 0 0.0 0.9 0.00 0.00 0.00 88 1000.7
20260507211555 55 0 0.0 7.0 0.00 0.00 0.00 88 1000.7
20260507204551 55 0 0.9 8.7 0.00 0.00 0.00 90 1000.9
20260507203054 54 0 0.0 9.6 0.00 0.00 0.00 91 1000.2
20260507201603 54 91 0.0 11.3 0.00 0.00 0.00 92 1000.2
20260507200105 54 0 0.0 8.7 0.00 0.00 0.00 92 1000.0
20260507194549 54 0 0.0 12.2 0.00 0.00 0.00 92 1001.2
20260507193049 55 160 0.0 7.0 0.00 0.00 0.00 91 1002.1
20260507191547 55 0 0.0 2.6 0.00 0.00 0.00 90 1002.8
20260507190052 54 0 0.0 0.9 0.00 0.00 0.00 92 1002.8
20260507184548 55 0 0.0 8.7 0.00 0.00 0.00 91 1003.1